Home > Weather > Ellwangen (Jagst) > Past weeks

Flag for Germany Past Weather in Ellwangen (Jagst), Baden-Württemberg, Germany — Yesterday and Last 2 Weeks

Now
75 °F

Passing clouds.


Feels Like: 77 °F
Forecast: 60 / 89 °F
Wind: 3 mph from Northeast

Location: Niederstetten

Current Time: Aug 26, 2016 at 10:10:28 PM

Latest Report: Aug 26, 2016 at 9:20 PM


Visibility: N/A

Pressure: 30.09 "Hg

Humidity: 61%

Dew Point: 61 °F

Location of Ellwangen (Jagst)Location

Past Weather in Ellwangen (Jagst) — Graph

°F

Ellwangen (Jagst) Temperature Yesterday

Maximum temperature yesterday: 88 °F (at 3:20 PM)
Minimum temperature yesterday: 59 °F (at 6:20 AM)
Average temperature yesterday: 73 °F

High & Low Weather Summary for the Past Weeks

 TemperatureHumidityPressure
High90 °F (Aug 26, 3:20 PM)100% (Aug 12, 7:20 AM)30.42 "Hg (Aug 12, 7:20 AM)
Low46 °F (Aug 18, 6:20 AM)27% (Aug 25, 3:20 PM)29.83 "Hg (Aug 18, 7:20 AM)
Average66 °F67%30.13 "Hg
* Reported Aug 11 8:20 PM — Aug 26 8:20 PM, Ellwangen (Jagst), Weather by CustomWeather, © 2016

Note: Actual official high and low records may vary slightly from our data, if they occured in-between our weather recording intervals... More about our weather records

Advertising

Ellwangen (Jagst) Weather History for the Previous 24 Hours

Scroll right to see more
 ConditionsComfort  
Time TempWeatherWind HumidityBarometerVisibility
8:20 PM
Fri, Aug 26
79 °FPassing clouds.3 mph54%30.09 "HgN/A
7:20 PM84 °FWarm.3 mph45%30.09 "HgN/A
6:20 PM88 °FPleasantly warm.3 mph38%30.09 "HgN/A
5:20 PM90 °FHot.5 mph36%30.09 "HgN/A
4:20 PM90 °FHot.5 mph38%30.09 "HgN/A
3:20 PM90 °FHot.6 mph36%30.09 "HgN/A
2:20 PM86 °FWarm.6 mph43%30.09 "HgN/A
1:20 PM86 °FWarm.5 mph43%30.09 "HgN/A
12:20 PM82 °FWarm.3 mph48%30.09 "HgN/A
11:20 AM79 °FWarm.3 mph54%30.09 "HgN/A
10:20 AM75 °FMild.3 mph57%30.09 "HgN/A
9:20 AM72 °FMild.7 mph61%30.09 "HgN/A
8:20 AM68 °FMild.8 mph64%30.09 "HgN/A
7:20 AM63 °FMild.6 mph77%30.09 "HgN/A
6:20 AM63 °FMild.8 mph77%30.07 "HgN/A
6:00 AM63 °FMild.7 mph73%30.07 "HgN/A
5:20 AM63 °FMild.8 mph73%30.07 "HgN/A
4:20 AM63 °FMild.9 mph68%30.07 "HgN/A
3:20 AM66 °FMild.7 mph56%30.07 "HgN/A
2:20 AM66 °FMild.8 mph52%30.07 "HgN/A
1:20 AM66 °FMild.7 mph52%30.09 "HgN/A
12:20 AM68 °FMild.7 mph49%30.09 "HgN/A
11:20 PM
Thu, Aug 25
70 °FMild.7 mph46%30.09 "HgN/A
10:20 PM70 °FMild.7 mph50%30.09 "HgN/A
Weather by CustomWeather, © 2016

See weather overviewHow to use our weather pages